﻿_id,ChocolattaIDY,ChocolattaStationID,ChocolattaNotes
1,1,CHOC1,removed trash at end of file
2,2,CHOC1,"08/20/03,13:16:00,30.67,0.007,0.00,8.39,112.2,-0.183,5.9,-0.26,11.4,120.43"
3,3,CHOC1,"08/20/03,13:30:59,32.62,0.242,0.11,8.39,116.1,-0.231,56.8,-0.33,11.4,3.61"
4,4,CHOC1,"08/20/03,13:46:00,33.54,0.176,0.08,7.58,106.6,-0.304,53.8,-0.43,11.4,4.88"
5,5,CHOC1,"08/20/03,14:01:00,33.74,0.178,0.08,7.05,99.4,-0.343,41.0,-0.48,11.4,4.81"
6,6,CHOC1,"08/20/03,14:15:59,33.77,0.178,0.08,6.64,93.7,-0.338,35.7,-0.48,11.4,4.81"
7,7,CHOC1,"08/20/03,14:31:00,33.34,0.247,0.11,6.40,89.6,-0.341,33.4,-0.48,11.4,3.49"
8,8,CHOC1,"08/20/03,14:46:00,32.85,0.247,0.11,6.21,86.3,-0.302,31.6,-0.43,11.4,3.52"
9,9,CHOC1,"08/20/03,15:00:59,32.78,0.249,0.12,5.94,82.5,-0.333,31.8,-0.47,11.4,3.49"
10,10,CHOC1,"08/20/03,15:16:00,32.84,0.248,0.12,5.71,79.3,-0.371,30.4,-0.53,11.4,3.50"
11,11,CHOC1,"08/20/03,15:31:00,32.91,0.250,0.12,5.43,75.6,-0.394,30.5,-0.56,11.4,3.47"
12,12,CHOC1,"08/20/03,15:45:59,33.00,0.251,0.12,5.26,73.2,-0.406,30.5,-0.57,11.4,3.45"
13,13,CHOC1,"08/20/03,16:00:59,33.10,0.251,0.12,5.01,69.9,-0.418,29.6,-0.59,11.4,3.45"
14,14,CHOC1,"08/20/03,16:16:00,33.19,0.251,0.12,4.79,67.0,-0.404,29.2,-0.57,11.4,3.45"
15,15,CHOC1,"08/20/03,16:30:59,33.16,0.251,0.12,4.59,64.1,-0.394,29.0,-0.56,11.4,3.44"
16,16,CHOC1,"08/20/03,16:45:59,32.94,0.253,0.12,4.36,60.7,-0.371,28.7,-0.53,11.4,3.44"
17,17,CHOC1,"08/20/03,17:01:00,32.60,0.252,0.12,4.22,58.3,-0.345,28.5,-0.49,11.4,3.46"
18,18,CHOC1,"08/20/03,17:16:00,32.20,0.253,0.12,4.11,56.5,-0.318,28.1,-0.45,11.4,3.48"
19,19,CHOC1,"08/20/03,17:30:59,31.77,0.254,0.12,3.96,54.0,-0.285,28.4,-0.40,11.4,3.49"
20,20,CHOC1,"08/20/03,17:46:00,31.35,0.254,0.12,3.91,53.0,-0.261,28.0,-0.37,11.4,3.52"
21,21,CHOC1,"08/20/03,18:01:00,30.91,0.255,0.12,3.81,51.2,-0.233,28.1,-0.33,11.4,3.53"
22,22,CHOC1,"08/20/03,18:15:59,30.49,0.255,0.12,3.80,50.7,-0.200,28.0,-0.28,11.4,3.55"
23,23,CHOC1,"08/20/03,18:31:00,30.07,0.253,0.12,3.80,50.4,-0.176,28.0,-0.25,11.4,3.60"
24,24,CHOC1,"08/20/03,18:46:00,29.64,0.255,0.12,3.73,49.0,-0.156,28.1,-0.22,11.4,3.60"
25,25,CHOC1,"08/20/03,19:00:59,29.24,0.255,0.12,3.73,48.7,-0.136,27.6,-0.19,11.4,3.62"
26,26,CHOC1,"08/20/03,19:16:00,28.87,0.254,0.12,3.71,48.2,-0.121,27.5,-0.17,11.4,3.66"
27,27,CHOC1,"08/20/03,19:31:00,28.50,0.256,0.12,3.65,47.0,-0.104,28.0,-0.15,11.4,3.66"
28,28,CHOC1,"08/20/03,19:45:59,28.15,0.253,0.12,3.71,47.5,-0.084,27.5,-0.12,11.4,3.72"
29,29,CHOC1,"08/20/03,20:01:00,27.82,0.254,0.12,3.68,46.9,-0.071,27.8,-0.10,11.4,3.73"
30,30,CHOC1,"08/20/03,20:16:00,27.48,0.256,0.12,3.66,46.3,-0.056,27.8,-0.08,11.4,3.72"
31,31,CHOC1,"08/20/03,20:30:59,27.17,0.257,0.12,3.75,47.2,-0.040,27.8,-0.06,11.4,3.74"
32,32,CHOC1,"08/20/03,20:46:00,26.89,0.256,0.12,3.80,47.7,-0.023,27.2,-0.03,11.4,3.77"
33,33,CHOC1,"08/20/03,21:01:00,26.61,0.257,0.12,3.82,47.6,-0.009,27.7,-0.01,11.4,3.78"
34,34,CHOC1,"08/20/03,21:15:59,26.36,0.256,0.12,3.79,47.1,0.004,27.5,0.01,11.4,3.80"
35,35,CHOC1,"08/20/03,21:30:59,26.12,0.257,0.12,3.80,47.0,0.014,27.5,0.02,11.4,3.81"
36,36,CHOC1,"08/20/03,21:46:00,25.89,0.257,0.12,3.83,47.1,0.024,27.8,0.03,11.4,3.82"
37,37,CHOC1,"08/20/03,22:00:59,25.68,0.257,0.12,3.84,47.0,0.033,27.4,0.05,11.4,3.85"
38,38,CHOC1,"08/20/03,22:15:59,25.48,0.258,0.12,3.85,47.0,0.041,27.7,0.06,11.4,3.84"
39,39,CHOC1,"08/20/03,22:31:00,25.29,0.258,0.12,3.82,46.5,0.048,28.0,0.07,11.4,3.85"
40,40,CHOC1,"08/20/03,22:46:00,25.12,0.257,0.12,3.85,46.8,0.053,27.5,0.07,11.4,3.88"
41,41,CHOC1,"08/20/03,23:00:59,24.95,0.258,0.12,3.85,46.5,0.056,27.7,0.08,11.4,3.88"
42,42,CHOC1,"08/20/03,23:16:00,24.79,0.257,0.12,3.79,45.7,0.060,27.4,0.08,11.4,3.90"
43,43,CHOC1,"08/20/03,23:31:00,24.64,0.259,0.12,3.89,46.7,0.063,27.8,0.09,11.4,3.89"
44,44,CHOC1,"08/20/03,23:45:59,24.50,0.259,0.12,3.91,46.9,0.067,27.5,0.09,11.4,3.90"
45,45,CHOC1,"08/21/03,0:00:59,24.37,0.258,0.12,3.96,47.4,0.070,27.4,0.10,11.4,3.92"
46,46,CHOC1,"08/21/03,0:15:59,24.24,0.259,0.12,3.93,46.9,0.074,27.8,0.10,11.4,3.92"
47,47,CHOC1,"08/21/03,0:31:00,24.11,0.259,0.12,4.00,47.6,0.077,27.7,0.11,11.4,3.93"
48,48,CHOC1,"08/21/03,0:46:00,23.99,0.259,0.12,4.05,48.1,0.082,27.9,0.12,11.4,3.93"
49,49,CHOC1,"08/21/03,1:00:59,23.88,0.259,0.12,4.01,47.6,0.088,27.7,0.13,11.4,3.95"
50,50,CHOC1,"08/21/03,1:16:00,23.76,0.261,0.12,4.02,47.6,0.090,28.5,0.13,11.4,3.93"
51,51,CHOC1,"08/21/03,1:31:00,23.66,0.260,0.12,4.12,48.6,0.092,27.9,0.13,11.4,3.95"
52,52,CHOC1,"08/21/03,1:45:59,23.55,0.261,0.12,4.09,48.2,0.095,28.1,0.13,11.4,3.94"
53,53,CHOC1,"08/21/03,2:01:00,23.46,0.260,0.12,4.15,48.8,0.100,28.0,0.14,11.4,3.96"
54,54,CHOC1,"08/21/03,2:16:00,23.36,0.261,0.12,4.19,49.2,0.103,28.1,0.15,11.4,3.95"
55,55,CHOC1,"08/21/03,2:30:59,23.28,0.260,0.12,4.21,49.4,0.103,27.8,0.15,11.4,3.97"
56,56,CHOC1,"08/21/03,2:46:00,23.20,0.262,0.12,4.25,49.8,0.105,28.7,0.15,11.4,3.95"
57,57,CHOC1,"08/21/03,3:01:00,23.12,0.260,0.12,4.28,50.1,0.108,28.3,0.15,11.4,3.98"
58,58,CHOC1,"08/21/03,3:15:59,23.05,0.262,0.12,4.29,50.1,0.108,28.5,0.15,11.4,3.96"
59,59,CHOC1,"08/21/03,3:31:00,22.98,0.262,0.12,4.32,50.4,0.110,28.1,0.16,11.4,3.97"
60,60,CHOC1,"08/21/03,3:46:00,22.91,0.262,0.12,4.36,50.7,0.113,28.1,0.16,11.4,3.98"
61,61,CHOC1,"08/21/03,4:00:59,22.85,0.262,0.12,4.39,51.0,0.116,28.3,0.17,11.4,3.98"
62,62,CHOC1,"08/21/03,4:16:00,22.78,0.263,0.12,4.35,50.5,0.118,28.6,0.17,11.4,3.98"
63,63,CHOC1,"08/21/03,4:31:00,22.72,0.263,0.12,4.42,51.3,0.120,28.3,0.17,11.4,3.98"
64,64,CHOC1,"08/21/03,4:45:59,22.67,0.263,0.12,4.46,51.7,0.124,28.3,0.18,11.4,3.98"
65,65,CHOC1,"08/21/03,5:00:59,22.62,0.262,0.12,4.45,51.5,0.126,28.3,0.18,11.4,4.00"
66,66,CHOC1,"08/21/03,5:16:00,22.58,0.264,0.13,4.42,51.2,0.127,29.9,0.18,11.4,3.97"
67,67,CHOC1,"08/21/03,5:30:59,22.55,0.264,0.13,4.50,52.1,0.128,28.3,0.18,11.4,3.97"
68,68,CHOC1,"08/21/03,5:45:59,22.41,0.265,0.13,5.08,58.6,0.170,29.6,0.24,11.4,3.97"
69,69,CHOC1,"08/21/03,6:01:00,22.34,0.263,0.12,5.70,65.6,0.176,28.6,0.25,11.4,4.01"
70,70,CHOC1,"08/21/03,6:16:00,22.36,0.266,0.13,6.09,70.2,0.172,31.8,0.24,11.4,3.97"
71,71,CHOC1,"08/21/03,6:30:59,22.64,0.266,0.13,6.22,72.1,0.127,35.8,0.18,11.4,3.93"
72,72,CHOC1,"08/21/03,6:46:00,22.97,0.266,0.13,6.18,72.1,0.103,34.9,0.15,11.4,3.92"
73,73,CHOC1,"08/21/03,7:01:00,23.20,0.267,0.13,6.07,71.0,0.093,33.4,0.13,11.4,3.87"
74,74,CHOC1,"08/21/03,7:15:59,23.39,0.268,0.13,6.02,70.8,0.088,32.8,0.13,11.4,3.85"
75,75,CHOC1,"08/21/03,7:31:00,23.52,0.268,0.13,5.97,70.3,0.092,32.8,0.13,11.4,3.84"
76,76,CHOC1,"08/21/03,7:46:00,23.62,0.268,0.13,5.89,69.5,0.097,32.6,0.14,11.4,3.83"
77,77,CHOC1,"08/21/03,8:00:59,23.68,0.269,0.13,5.84,69.0,0.100,32.5,0.14,11.4,3.82"
78,78,CHOC1,"08/21/03,8:16:00,23.71,0.268,0.13,5.71,67.5,0.006,34.2,0.01,11.4,3.82"
79,79,CHOC2,DO membrane was ripped only collected 13 (probably 0) samples
80,80,CHOC2,removed trash at eof
81,81,CHOC2,"9/10/2003,13:00:40,28.52,3.014,1.56,2.67,34.8,0.656,279.8,0.93,12.0,0.31"
82,82,CHOC2,"9/10/2003,"",13:15:39,31.43,0.007,0.00,5.14,69.7,-0.365,55.7,-0.52,12.0,127.90"
83,83,CHOC3,***note DO measured 84% with new instrument at 1330 25 Sept 2003
84,84,CHOC3,check DO % and DO mg/l -- tear in membrane?
85,85,CHOC3,removed trash from eof:
86,86,CHOC3,"09/25/03,13:45:59,27.10,0.032,0.01,3.54,44.5,-0.746,15.0,-1.06,11.6,30.39"
87,87,CHOC3,"09/25/03,14:01:00,33.26,0.110,0.05,3.20,44.8,-0.769,72.4,-1.09,11.6,7.85"
88,88,CHOC3,"09/25/03,14:16:00,32.78,0.199,0.09,3.12,43.3,-0.745,70.9,-1.05,11.6,4.38"
89,89,CHOC3,"09/25/03,14:30:59,32.19,0.017,0.01,3.11,42.7,-0.765,67.6,-1.08,11.6,50.41"
90,90,CHOC3,"09/25/03,14:46:00,31.66,0.011,0.00,3.07,41.7,-0.746,69.2,-1.05,11.6,81.02"
91,91,CHOC3,"09/25/03,15:00:59,31.37,0.007,0.00,3.03,41.0,-0.719,70.8,-1.02,11.6,123.73"
92,92,CHOC3,"09/25/03,15:15:59,30.94,0.007,0.00,3.04,40.9,-0.680,62.2,-0.96,11.6,126.30"
93,93,CHOC3,"09/25/03,15:31:00,30.35,0.220,0.10,3.08,41.0,-0.711,67.3,-1.01,11.6,4.12"
94,94,CHOC3,"09/25/03,15:46:00,30.19,0.003,0.00,2.98,39.5,-0.761,101.0,-1.08,11.6,270.51"
95,95,CHOC3,"09/25/03,16:00:59,29.63,0.003,0.00,2.85,37.4,-0.759,85.1,-1.07,11.6,277.07"
96,96,CHOC3,"09/25/03,16:16:00,29.09,0.003,0.00,2.79,36.3,-0.754,78.7,-1.07,11.6,278.66"
97,97,CHOC3,"09/25/03,16:30:59,28.61,0.003,0.00,2.77,35.7,-0.753,76.5,-1.06,11.6,281.99"
98,98,CHOC3,"09/25/03,16:46:00,28.20,0.003,0.00,2.76,35.4,-0.752,74.3,-1.06,11.6,275.11"
99,99,CHOC3,"09/25/03,17:01:00,27.90,0.003,0.00,2.76,35.2,-0.003,65.0,0.00,11.6,277.19"
100,100,CHOC4,No DAT file
101,101,CHOC4,removed trash from eof:
102,102,CHOC4,"10/14/03,11:45:39,24.72,5.631,3.04,9.16,112.2,1.752,20.8,0.758,11.7"
103,103,CHOC6,No data for event 6
104,104,CHOC6,Operator error - YSI did not log data
105,105,CHOC5,Removed trash at EOF:
106,106,CHOC5,"Date,Time,Temp,SpCond,Salinity,DO Conc,DO %,Depth,Turbidity+,  Press,Battery,Resistivit"
107,107,CHOC5,"   m/d/y,hh:mm:ss,    C, mS/cm,   ppt,  mg/L,    %,   feet,    NTU,   psig,  volts,KOhm.cm"
108,108,CHOC5,"11/06/03,14:30:40,24.25,5.337,2.88,7.80,94.7,0.876,140.7,,12.0,0.19"
109,109,CHOC5,"11/06/03,14:45:40,24.29,5.313,2.86,7.82,94.9,0.875,143.8,,12.0,0.19"
110,110,CHOC5,"11/06/03,15:00:50,25.02,4.855,2.60,8.16,100.2,0.787,386.8,,12.0,0.21"
111,111,CHOC5,"11/06/03,15:15:40,27.84,1.472,0.73,7.57,96.8,-0.381,94.6,,12.0,0.64"
112,112,CHOC7B,Removed trash at EOF -- Instrument out of water between 13:15 and 13:30:
113,113,CHOC7B,"Date,Time,Temp,SpCond,Salinity,DO Conc,DO %,Depth,Turbidity+,  Press,Battery,Resistivit"
114,114,CHOC7B,"   m/d/y,hh:mm:ss,    C, mS/cm,   ppt,  mg/L,    %,   feet,    NTU,   psig,  volts,KOhm.cm"
115,115,CHOC7B,"12/16/2003,13:30:40,0.003,0.00,10.80,106.3,14.66,2.3,-0.366,368.22,12.0"
116,116,CHOC7B,"12/16/2003,13:45:40,0.003,0.00,10.93,109.4,15.44,9.7,-0.475,424.55,12.0"
117,117,CHOC7B,"12/16/2003,14:00:40,0.003,0.00,10.71,108.4,15.93,9.0,-0.516,428.77,12.0"
118,118,CHOC7B,"12/16/2003,14:15:40,0.002,0.00,10.55,107.2,16.16,9.3,-0.560,493.36,12.0"
119,119,CHOC7B,"12/16/2003,14:30:40,0.002,0.00,10.45,106.7,16.38,8.7,-0.601,524.95,12.0"
120,120,CHOC7B,"12/16/2003,14:45:40,0.002,0.00,10.35,106.2,16.60,9.0,-0.640,494.19,12.0"
121,121,CHOC7B,"12/16/2003,15:00:40,0.002,0.00,10.28,105.9,16.82,8.9,-0.661,518.51,12.0"
122,122,CHOC7B,"12/16/2003,15:15:40,0.003,0.00,10.19,105.3,16.97,8.7,-0.665,451.30,12.0"
123,123,CHOC7B,"12/16/2003,15:30:40,0.003,0.00,10.18,105.0,16.84,8.3,-0.585,437.20,12.0"
124,124,CHOC7B,"12/16/2003,15:45:40,0.003,0.00,10.17,104.7,16.75,8.6,-0.571,427.10,12.0"
125,125,CHOC7B,"12/16/2003,16:00:40,0.003,0.00,10.18,104.4,16.61,8.3,-0.552,398.45,11.9"
126,126,CHOC7B,"12/16/2003,16:15:40,0.003,0.00,10.03,103.8,17.01,7.9,-0.656,467.96,12.0"
127,127,CHOC7B,"12/16/2003,16:30:40,0.003,0.00,10.08,104.1,16.91,8.1,-0.579,457.61,12.0"
128,128,CHOC7B,"12/16/2003,16:45:40,0.002,0.00,10.20,104.2,16.38,7.6,-0.545,517.12,12.0"
129,129,CHOC7B,"12/16/2003,17:00:40,0.003,0.00,10.21,104.0,16.24,8.0,-0.547,470.75,12.0"
130,130,CHOC7B,"12/16/2003,17:15:40,0.003,0.00,10.19,103.9,16.29,8.2,-0.574,415.34,12.0"
131,131,CHOC7B,"12/16/2003,17:30:40,0.003,0.00,10.18,103.9,16.38,8.4,-0.598,430.57,12.0"
132,132,CHOC7B,"12/16/2003,17:45:40,0.003,0.00,10.16,104.1,16.52,8.4,-0.612,456.52,12.0"
133,133,CHOC7B,"12/16/2003,18:00:40,0.003,0.00,10.12,104.0,16.68,8.0,-0.623,451.58,12.0"
134,134,CHOC7B,"12/16/2003,18:15:40,0.003,0.00,10.08,104.0,16.89,8.6,-0.630,422.27,12.0"
135,135,CHOC7B,"12/16/2003,18:30:40,0.003,0.00,10.04,104.0,17.06,8.5,-0.636,445.23,12.0"
136,136,CHOC7B,"12/16/2003,18:45:40,0.003,0.00,10.00,104.0,17.24,8.4,-0.631,431.01,12.0"
137,137,CHOC7B,"12/16/2003,19:00:40,0.003,0.00,9.96,103.9,17.41,9.0,-0.622,422.42,12.0"
138,138,CHOC7B,"12/16/2003,19:15:40,0.003,0.00,9.93,103.9,17.55,8.7,-0.614,428.49,12.0"
139,139,CHOC7B,"12/16/2003,19:30:40,0.003,0.00,9.90,103.9,17.68,8.8,-0.601,425.44,12.0"
140,140,CHOC7B,"12/16/2003,19:45:40,0.003,0.00,9.88,103.8,17.77,8.1,-0.590,435.53,12.0"
141,141,CHOC7B,"12/16/2003,20:00:40,0.003,0.00,9.86,103.8,17.86,8.4,-0.577,422.67,12.0"
142,142,CHOC7B,"12/16/2003,20:15:40,0.003,0.00,9.84,103.8,17.91,8.8,-0.571,406.46,12.0"
143,143,CHOC7B,"12/16/2003,20:30:40,0.003,0.00,9.84,103.8,17.94,8.5,-0.557,409.99,12.0"
144,144,CHOC7B,"12/16/2003,20:45:40,0.003,0.00,9.83,103.7,17.97,8.3,-0.543,433.42,12.0"
145,145,CHOC7B,"12/16/2003,21:00:40,0.003,0.00,9.83,103.8,17.96,8.4,-0.532,433.28,12.0"
146,146,CHOC7B,"12/16/2003,21:15:40,0.003,0.00,9.83,103.7,17.95,8.7,-0.520,429.01,12.0"
147,147,CHOC7B,"12/16/2003,21:30:40,0.003,0.00,9.83,103.7,17.92,8.5,-0.506,430.98,12.0"
148,148,CHOC7B,"12/16/2003,21:45:40,0.003,0.00,9.84,103.6,17.88,8.7,-0.496,422.15,12.0"
149,149,CHOC7B,"12/16/2003,22:00:40,0.003,0.00,9.84,103.6,17.84,8.2,-0.486,444.92,12.0"
150,150,CHOC7B,"12/16/2003,22:15:40,0.003,0.00,9.85,103.5,17.79,8.2,-0.474,445.30,12.0"
151,151,CHOC7B,"12/16/2003,22:30:40,0.003,0.00,9.85,103.5,17.72,8.7,-0.465,419.65,12.0"
152,152,CHOC7B,"12/16/2003,22:45:40,0.003,0.00,9.87,103.5,17.65,8.9,-0.456,441.24,12.0"
153,153,CHOC7B,"12/16/2003,23:00:40,0.003,0.00,9.89,103.6,17.57,8.3,-0.454,444.55,12.0"
154,154,CHOC7B,"12/16/2003,23:15:40,0.003,0.00,9.89,103.4,17.51,8.3,-0.448,442.38,12.0"
155,155,CHOC7B,"12/16/2003,23:30:40,0.003,0.00,9.92,103.6,17.44,8.5,-0.434,432.12,12.0"
156,156,CHOC7B,"12/16/2003,23:45:40,0.003,0.00,9.92,103.4,17.37,8.3,-0.420,443.79,12.0"
157,157,CHOC7B,"12/17/2003,0:00:40,0.003,0.00,9.93,103.3,17.29,8.3,-0.404,439.32,12.0"
158,158,CHOC7B,"12/17/2003,0:15:40,0.003,0.00,9.96,103.5,17.18,8.5,-0.391,450.23,12.0"
159,159,CHOC7B,"12/17/2003,0:30:40,0.003,0.00,9.97,103.3,17.06,8.4,-0.379,471.39,12.0"
160,160,CHOC7B,"12/17/2003,0:45:40,0.003,0.00,10.00,103.3,16.92,8.6,-0.367,434.26,12.0"
161,161,CHOC7B,"12/17/2003,1:00:40,0.003,0.00,10.03,103.3,16.78,8.7,-0.358,453.17,12.0"
162,162,CHOC7B,"12/17/2003,1:15:40,0.003,0.00,10.06,103.3,16.65,8.7,-0.351,469.50,12.0"
163,163,CHOC7B,"12/17/2003,1:30:40,0.003,0.00,10.09,103.3,16.52,8.3,-0.343,457.86,12.0"
164,164,CHOC7B,"12/17/2003,1:45:40,0.003,0.00,10.12,103.4,16.39,8.4,-0.337,456.82,12.0"
165,165,CHOC7B,"12/17/2003,2:00:40,0.003,0.00,10.15,103.4,16.26,8.3,-0.330,471.83,12.0"
166,166,CHOC7B,"12/17/2003,2:15:40,0.003,0.00,10.18,103.5,16.14,8.5,-0.325,462.82,12.0"
167,167,CHOC7B,"12/17/2003,2:30:40,0.003,0.00,10.21,103.5,16.02,8.6,-0.321,455.95,12.0"
168,168,CHOC7B,"12/17/2003,2:45:40,0.003,0.00,10.24,103.5,15.91,8.4,-0.314,469.07,12.0"
169,169,CHOC7B,"12/17/2003,3:00:40,0.003,0.00,10.26,103.5,15.81,8.4,-0.305,464.01,12.0"
170,170,CHOC7B,"12/17/2003,3:15:40,0.003,0.00,10.29,103.6,15.70,8.7,-0.300,472.60,12.0"
171,171,CHOC7B,"12/17/2003,3:30:40,0.003,0.00,10.32,103.6,15.59,9.0,-0.294,469.65,12.0"
172,172,CHOC7B,"12/17/2003,3:45:40,0.003,0.00,10.34,103.6,15.49,8.4,-0.288,472.92,11.9"
173,173,CHOC7B,"12/17/2003,4:00:40,0.003,0.00,10.36,103.6,15.39,8.6,-0.282,455.88,12.0"
174,174,CHOC7B,"12/17/2003,4:15:40,0.003,0.00,10.39,103.7,15.29,8.4,-0.275,480.01,12.0"
175,175,CHOC7B,"12/17/2003,4:30:40,0.003,0.00,10.41,103.7,15.20,8.4,-0.266,464.95,12.0"
176,176,CHOC7B,"12/17/2003,4:45:40,0.003,0.00,10.44,103.8,15.09,8.4,-0.256,464.60,12.0"
177,177,CHOC7B,"12/17/2003,5:00:40,0.003,0.00,10.47,103.8,14.99,8.4,-0.245,458.58,12.0"
178,178,CHOC7B,"12/17/2003,5:15:40,0.003,0.00,10.52,104.0,14.88,8.6,-0.240,464.18,12.0"
179,179,CHOC7B,"12/17/2003,5:30:40,0.003,0.00,10.53,103.8,14.76,8.6,-0.240,467.93,11.9"
180,180,CHOC7B,"12/17/2003,5:45:40,0.003,0.00,10.55,103.9,14.67,8.4,-0.241,468.05,12.0"
181,181,CHOC7B,"12/17/2003,6:00:40,0.003,0.00,10.58,103.9,14.58,8.6,-0.241,474.68,12.0"
182,182,CHOC7B,"12/17/2003,6:15:40,0.003,0.00,10.60,104.0,14.51,8.3,-0.241,474.03,12.0"
183,183,CHOC7B,"12/17/2003,6:30:40,0.003,0.00,10.61,104.0,14.47,8.3,-0.240,467.59,12.0"
184,184,CHOC7B,"12/17/2003,6:45:40,0.003,0.00,10.63,104.1,14.41,8.6,-0.241,459.16,12.0"
185,185,CHOC7B,"12/17/2003,7:00:40,0.003,0.00,10.64,104.0,14.34,8.8,-0.242,486.24,12.0"
186,186,CHOC7B,"12/17/2003,7:15:40,0.003,0.00,10.66,104.1,14.28,8.4,-0.235,475.06,12.0"
187,187,CHOC7B,"12/17/2003,7:30:40,0.003,0.00,10.67,104.1,14.26,8.6,-0.236,472.27,12.0"
188,188,CHOC7B,"12/17/2003,7:45:40,0.003,0.00,10.68,104.1,14.23,8.6,-0.232,467.57,12.0"
189,189,CHOC7B,"12/17/2003,8:00:40,0.003,0.00,10.68,104.1,14.21,8.5,-0.231,461.01,12.0"
190,190,CHOC7B,"12/17/2003,8:15:40,0.003,0.00,10.70,104.3,14.19,8.4,-0.228,475.15,12.0"
191,191,CHOC7B,"12/17/2003,8:30:40,0.003,0.00,10.70,104.2,14.18,8.4,-0.226,464.11,12.0"
192,192,CHOC7B,"12/17/2003,8:45:40,0.003,0.00,10.71,104.3,14.15,8.3,-0.225,475.87,12.0"
193,193,CHOC7B,"12/17/2003,9:00:40,0.003,0.00,10.71,104.2,14.13,8.4,-0.226,473.33,12.0"
194,194,CHOC7B,"12/17/2003,9:15:40,0.003,0.00,10.85,105.5,14.11,8.4,-0.229,460.63,12.0"
195,195,CHOC7B,"12/17/2003,9:30:40,0.003,0.00,10.72,104.1,14.08,9.2,-0.231,457.47,12.0"
196,196,CHOC7B,"12/17/2003,9:45:40,0.003,0.00,10.73,104.2,14.03,8.5,-0.236,494.47,12.0"
197,197,CHOC7B,"12/17/2003,10:00:40,0.003,0.00,10.73,104.2,14.03,8.4,-0.243,473.72,12.0"
198,198,CHOC7B,"12/17/2003,10:15:40,0.003,0.00,10.75,104.3,14.02,8.6,-0.246,476.91,12.0"
199,199,CHOC7B,"12/17/2003,10:30:40,0.003,0.00,10.76,104.4,13.98,8.6,-0.288,485.92,12.0"
200,200,CHOC7B,"12/17/2003,10:45:40,0.003,0.00,10.82,104.7,13.91,8.6,-0.327,474.86,12.0"
201,201,CHOC8,Removed trash from Beginning and End of File - Instrument in at 13:38 and out at 14:15ish:
202,202,CHOC8,"Date,Time,Temp,SpCond,Salinity,DO Conc,DO %,Depth,Turbidity+,  Press,Battery,Resistivit"
203,203,CHOC8,"   m/d/y,hh:mm:ss,    C, mS/cm,   ppt,  mg/L,    %,   feet,    NTU,   psig,  volts,KOhm.cm"
204,204,CHOC8,"12/16/2003,13:30:59,15.90,0.000,0.00,11.86,119.9,-4.5,-1.677,-2.38,14706.38,13.0"
205,205,CHOC8,"1/14/2004,14:30:59,13.05,0.002,0.00,11.76,111.7,7.6,-0.053,-0.07,843.37,11.5"
206,206,CHOC8,"1/14/2004,14:46:00,13.01,0.001,0.00,11.76,111.7,6.8,-0.114,-0.16,892.57,11.4"
207,207,CHOC8,"1/14/2004,15:00:59,13.30,0.002,0.00,11.67,111.5,8.0,-0.110,-0.16,778.47,11.5"
208,208,CHOC8,"1/14/2004,15:16:00,13.32,0.001,0.00,11.65,111.3,7.5,-0.100,-0.14,930.70,11.4"
209,209,CHOC8,"1/14/2004,15:30:59,14.23,0.001,0.00,11.38,111.0,7.1,-0.214,-0.30,1063.48,11.5"
210,210,CHOC8,"1/14/2004,15:46:00,14.86,0.001,0.00,11.17,110.4,7.2,-0.285,-0.40,1448.93,11.4"
211,211,CHOC8,"1/14/2004,16:00:59,14.15,0.000,0.00,11.40,111.0,7.2,-0.212,-0.30,5278.76,11.4"
212,212,CHOC8,"1/14/2004,16:15:59,13.78,0.000,0.00,11.50,111.0,7.5,-0.146,-0.21,3840.94,11.4"
213,213,CHOC8,"1/14/2004,16:31:00,13.97,0.001,0.00,11.44,110.9,7.0,-0.184,-0.26,2521.42,11.4"
214,214,CHOC8,"1/14/2004,16:45:59,14.22,0.001,0.00,11.37,110.9,7.1,-0.222,-0.32,2353.71,11.5"
215,215,CHOC8,"1/14/2004,17:01:00,14.52,0.001,0.00,11.27,110.6,7.3,-0.245,-0.35,2223.92,11.4"
216,216,CHOC8,"1/14/2004,17:15:59,14.80,0.001,0.00,11.20,110.6,7.1,-0.260,-0.37,2165.43,11.6"
217,217,CHOC8,"1/14/2004,17:30:59,15.07,0.001,0.00,11.10,110.3,6.8,-0.271,-0.39,2243.36,11.4"
218,218,CHOC8,"1/14/2004,17:45:59,15.32,0.001,0.00,11.04,110.2,6.9,-0.279,-0.40,2186.21,11.4"
219,219,CHOC8,"1/14/2004,18:01:00,15.54,0.001,0.00,10.97,110.1,6.8,-0.286,-0.41,2154.76,11.4"
220,220,CHOC8,"1/14/2004,18:15:59,15.74,0.001,0.00,10.91,109.9,7.0,-0.291,-0.41,2038.73,11.4"
221,221,CHOC8,"1/14/2004,18:30:59,15.92,0.001,0.00,10.86,109.8,6.8,-0.295,-0.42,2026.42,11.5"
222,222,CHOC8,"1/14/2004,18:46:00,16.11,0.001,0.00,10.80,109.6,7.2,-0.299,-0.42,1981.48,11.5"
223,223,CHOC8,"1/14/2004,19:00:59,16.26,0.001,0.00,10.76,109.6,6.8,-0.301,-0.43,2072.16,11.5"
224,224,CHOC8,"1/14/2004,19:15:59,16.41,0.001,0.00,10.71,109.4,6.8,-0.306,-0.43,2001.46,11.6"
225,225,CHOC8,"1/14/2004,19:30:59,16.54,0.001,0.00,10.65,109.2,6.6,-0.308,-0.44,2015.83,11.6"
226,226,CHOC8,"1/14/2004,19:45:59,16.68,0.001,0.00,10.61,109.0,6.7,-0.310,-0.44,2005.34,11.6"
227,227,CHOC8,"1/14/2004,20:01:00,16.79,0.001,0.00,10.57,108.9,6.8,-0.312,-0.44,1992.66,11.5"
228,228,CHOC8,"1/14/2004,20:15:59,16.89,0.001,0.00,10.55,108.9,6.7,-0.314,-0.45,1976.06,11.6"
229,229,CHOC8,"1/14/2004,20:30:59,17.00,0.001,0.00,10.51,108.7,6.7,-0.316,-0.45,1999.67,11.5"
230,230,CHOC8,"1/14/2004,20:45:59,17.09,0.001,0.00,10.49,108.8,6.7,-0.317,-0.45,1988.76,11.5"
231,231,CHOC8,"1/14/2004,21:01:00,17.18,0.001,0.00,10.47,108.7,6.7,-0.318,-0.45,2021.11,11.5"
232,232,CHOC8,"1/14/2004,21:15:59,17.26,0.001,0.00,10.45,108.7,6.7,-0.320,-0.45,1993.96,11.5"
233,233,CHOC8,"1/14/2004,21:30:59,17.34,0.001,0.00,10.42,108.6,6.8,-0.321,-0.45,2001.22,11.5"
234,234,CHOC8,"1/14/2004,21:45:59,17.41,0.001,0.00,10.40,108.6,6.8,-0.322,-0.46,1990.65,11.6"
235,235,CHOC8,"1/14/2004,22:01:00,17.48,0.001,0.00,10.37,108.4,6.7,-0.324,-0.46,2016.19,11.5"
236,236,CHOC8,"1/14/2004,22:15:59,17.55,0.001,0.00,10.36,108.4,6.6,-0.327,-0.46,2032.55,11.6"
237,237,CHOC8,"1/14/2004,22:31:00,17.61,0.001,0.00,10.33,108.2,6.8,-0.329,-0.47,2050.22,11.5"
238,238,CHOC8,"1/14/2004,22:45:59,17.67,0.001,0.00,10.32,108.2,7.1,-0.329,-0.47,2044.19,11.6"
239,239,CHOC8,"1/14/2004,23:00:59,17.72,0.001,0.00,10.29,108.1,6.8,-0.332,-0.47,2027.76,11.6"
240,240,CHOC8,"1/14/2004,23:15:59,17.77,0.001,0.00,10.27,108.0,6.9,-0.334,-0.47,2030.77,11.6"
241,241,CHOC8,"1/14/2004,23:30:59,17.82,0.001,0.00,10.25,107.9,6.5,-0.336,-0.48,2078.99,11.6"
242,242,CHOC8,"1/14/2004,23:45:59,17.88,0.001,0.00,10.23,107.8,6.7,-0.338,-0.48,2033.97,11.5"
243,243,CHOC8,"1/15/2004,0:00:59,17.94,0.001,0.00,10.23,107.9,6.8,-0.336,-0.48,2036.13,11.6"
244,244,CHOC8,"1/15/2004,0:15:59,18.00,0.001,0.00,10.20,107.8,6.7,-0.334,-0.47,2037.18,11.6"
245,245,CHOC8,"1/15/2004,0:30:59,18.05,0.001,0.00,10.18,107.7,6.8,-0.332,-0.47,1975.82,11.5"
246,246,CHOC8,"1/15/2004,0:46:00,18.10,0.001,0.00,10.18,107.8,7.0,-0.328,-0.47,1973.44,11.5"
247,247,CHOC8,"1/15/2004,1:00:59,18.14,0.001,0.00,10.18,107.8,6.5,-0.324,-0.46,1958.75,11.6"
248,248,CHOC8,"1/15/2004,1:16:00,18.18,0.001,0.00,10.16,107.7,6.8,-0.321,-0.45,1927.92,11.5"
249,249,CHOC8,"1/15/2004,1:30:59,18.20,0.001,0.00,10.16,107.7,6.8,-0.317,-0.45,1901.42,11.6"
250,250,CHOC8,"1/15/2004,1:45:59,18.22,0.001,0.00,10.14,107.6,6.5,-0.313,-0.44,1876.28,11.6"
251,251,CHOC8,"1/15/2004,2:01:00,18.24,0.001,0.00,10.14,107.6,6.6,-0.311,-0.44,1861.86,11.5"
252,252,CHOC8,"1/15/2004,2:15:59,18.25,0.001,0.00,10.14,107.7,6.7,-0.309,-0.44,1840.11,11.5"
253,253,CHOC8,"1/15/2004,2:31:00,18.26,0.001,0.00,10.14,107.7,6.8,-0.307,-0.44,1847.56,11.5"
254,254,CHOC8,"1/15/2004,2:46:00,18.27,0.001,0.00,10.14,107.6,7.0,-0.306,-0.43,1669.75,11.6"
255,255,CHOC8,"1/15/2004,3:00:59,18.28,0.001,0.00,10.13,107.6,6.8,-0.305,-0.43,1553.01,11.5"
256,256,CHOC8,"1/15/2004,3:16:00,18.29,0.001,0.00,10.13,107.7,7.2,-0.303,-0.43,1564.89,11.5"
257,257,CHOC8,"1/15/2004,3:31:00,18.29,0.001,0.00,10.13,107.7,6.8,-0.301,-0.43,1542.73,11.5"
258,258,CHOC8,"1/15/2004,3:45:59,18.30,0.001,0.00,10.13,107.7,6.8,-0.298,-0.42,1510.88,11.6"
259,259,CHOC8,"1/15/2004,4:01:00,18.30,0.001,0.00,10.14,107.7,6.7,-0.295,-0.42,1475.80,11.6"
260,260,CHOC8,"1/15/2004,4:15:59,18.30,0.001,0.00,10.12,107.5,7.0,-0.293,-0.42,1471.65,11.6"
261,261,CHOC8,"1/15/2004,4:31:00,18.30,0.001,0.00,10.13,107.7,6.6,-0.290,-0.41,1452.95,11.6"
262,262,CHOC8,"1/15/2004,4:45:59,18.30,0.001,0.00,10.13,107.7,6.8,-0.289,-0.41,1446.25,11.6"
263,263,CHOC8,"1/15/2004,5:00:59,18.30,0.001,0.00,10.12,107.5,7.2,-0.288,-0.41,1393.95,11.6"
264,264,CHOC8,"1/15/2004,5:15:59,18.31,0.001,0.00,10.11,107.5,6.8,-0.286,-0.41,1394.06,11.6"
265,265,CHOC8,"1/15/2004,5:31:00,18.30,0.001,0.00,10.11,107.5,6.6,-0.285,-0.40,1374.73,11.6"
266,266,CHOC8,"1/15/2004,5:45:59,18.31,0.001,0.00,10.11,107.5,6.6,-0.284,-0.40,1379.54,11.6"
267,267,CHOC8,"1/15/2004,6:01:00,18.32,0.001,0.00,10.12,107.6,7.0,-0.286,-0.41,1386.72,11.6"
268,268,CHOC8,"1/15/2004,6:15:59,18.32,0.001,0.00,10.12,107.6,6.7,-0.287,-0.41,1373.44,11.6"
269,269,CHOC8,"1/15/2004,6:31:00,18.33,0.001,0.00,10.11,107.5,6.7,-0.286,-0.40,1369.85,11.6"
270,270,CHOC8,"1/15/2004,6:45:59,18.33,0.001,0.00,10.12,107.6,6.7,-0.285,-0.40,1378.85,11.6"
271,271,CHOC8,"1/15/2004,7:01:00,18.34,0.001,0.00,10.12,107.7,6.7,-0.286,-0.41,1362.75,11.5"
272,272,CHOC8,"1/15/2004,7:15:59,18.34,0.001,0.00,10.12,107.7,6.7,-0.287,-0.41,1367.84,11.6"
273,273,CHOC8,"1/15/2004,7:30:59,18.32,0.001,0.00,10.12,107.6,6.9,-0.285,-0.40,1338.24,11.6"